| time (UTC) | temp C | wind direction | speed KPH | gust KPH | rain 1hr cm | rain 24hr cm | rain mn cm | humidity % | barometer mb |
| 20260502191055 | 23 | 62 | 3.2 | 12.9 | 0.00 | 4.88 | 0.00 | 43 | 1018.6 |
| 20260502190555 | 23 | 55 | 3.2 | 11.3 | 0.00 | 4.88 | 0.00 | 45 | 1018.7 |
| 20260502190055 | 23 | 314 | 3.2 | 11.3 | 0.00 | 4.88 | 0.00 | 42 | 1018.8 |
| 20260502185555 | 23 | 337 | 1.6 | 8.0 | 0.00 | 6.12 | 0.00 | 45 | 1018.9 |
| 20260502185055 | 22 | 9 | 3.2 | 14.5 | 0.00 | 6.12 | 0.00 | 43 | 1018.9 |
| 20260502184553 | 22 | 9 | 4.8 | 20.9 | 0.00 | 6.12 | 0.00 | 44 | 1019.0 |
| 20260502184058 | 22 | 42 | 3.2 | 20.9 | 0.00 | 6.12 | 0.00 | 40 | 1019.1 |
| 20260502183555 | 23 | 73 | 3.2 | 12.9 | 0.00 | 6.12 | 0.00 | 43 | 1019.1 |
| 20260502183058 | 22 | 298 | 1.6 | 14.5 | 0.00 | 6.12 | 0.00 | 45 | 1019.1 |
| 20260502182554 | 22 | 90 | 3.2 | 14.5 | 0.00 | 6.12 | 0.00 | 44 | 1019.2 |
| 20260502182055 | 22 | 70 | 4.8 | 14.5 | 0.00 | 6.12 | 0.00 | 46 | 1019.1 |
| 20260502181555 | 22 | 121 | 3.2 | 12.9 | 0.00 | 6.12 | 0.00 | 45 | 1019.3 |
| 20260502181059 | 22 | 8 | 4.8 | 12.9 | 0.00 | 6.12 | 0.00 | 44 | 1019.2 |
| 20260502180556 | 22 | 13 | 3.2 | 12.9 | 0.00 | 6.12 | 0.00 | 46 | 1019.2 |
| 20260502164055 | 21 | 48 | 4.8 | 14.5 | 0.00 | 8.76 | 0.00 | 56 | 1019.5 |
| 20260502163555 | 21 | 346 | 1.6 | 9.7 | 0.00 | 8.76 | 0.00 | 58 | 1019.5 |
| 20260502163057 | 21 | 310 | 3.2 | 12.9 | 0.00 | 8.76 | 0.00 | 58 | 1019.6 |
| 20260502162558 | 20 | 318 | 3.2 | 12.9 | 0.00 | 8.76 | 0.00 | 61 | 1019.6 |
| 20260502162059 | 20 | 61 | 3.2 | 14.5 | 0.00 | 8.76 | 0.00 | 60 | 1019.6 |
| 20260502161559 | 20 | 36 | 3.2 | 14.5 | 0.00 | 8.76 | 0.00 | 62 | 1019.5 |
| 20260502161055 | 20 | 16 | 3.2 | 9.7 | 0.00 | 8.76 | 0.00 | 62 | 1019.4 |
| 20260502160555 | 20 | 18 | 3.2 | 9.7 | 0.00 | 8.76 | 0.00 | 62 | 1019.5 |
| 20260502160105 | 20 | 320 | 3.2 | 9.7 | 0.00 | 8.76 | 0.00 | 65 | 1019.5 |
| 20260502152055 | 18 | 0 | 1.6 | 8.0 | 0.00 | 9.60 | 0.00 | 70 | 1019.5 |
| 20260502151611 | 18 | 346 | 3.2 | 9.7 | 0.00 | 9.60 | 0.00 | 69 | 1019.5 |
| 20260502151059 | 18 | 76 | 3.2 | 9.7 | 0.00 | 9.60 | 0.00 | 72 | 1019.4 |
| 20260502150558 | 17 | 0 | 3.2 | 9.7 | 0.00 | 9.60 | 0.00 | 73 | 1019.3 |
| 20260502150109 | 17 | 0 | 1.6 | 8.0 | 0.00 | 9.60 | 0.00 | 75 | 1019.5 |
| 20260502130555 | 12 | 327 | 1.6 | 9.7 | 0.00 | 9.68 | 0.00 | 91 | 1018.0 |
| 20260502123555 | 12 | 329 | 0.0 | 4.8 | 0.00 | 9.68 | 0.00 | 93 | 1018.1 |
| 20260502123056 | 11 | 108 | 0.0 | 8.0 | 0.00 | 9.68 | 0.00 | 93 | 1018.1 |
| 20260502122555 | 11 | 281 | 0.0 | 8.0 | 0.00 | 9.68 | 0.00 | 94 | 1017.9 |
| 20260502122055 | 11 | 57 | 0.0 | 4.8 | 0.00 | 9.68 | 0.00 | 94 | 1017.9 |
| 20260502121601 | 11 | 320 | 0.0 | 4.8 | 0.00 | 9.68 | 0.00 | 94 | 1017.7 |
| 20260502121054 | 11 | 10 | 0.0 | 4.8 | 0.00 | 9.68 | 0.00 | 94 | 1017.5 |
| 20260502120555 | 11 | 0 | 0.0 | 4.8 | 0.00 | 9.68 | 0.00 | 94 | 1017.5 |
| 20260502120111 | 11 | 298 | 0.0 | 3.2 | 0.00 | 9.68 | 0.00 | 94 | 1017.4 |
| 20260502115556 | 11 | 83 | 0.0 | 6.4 | 0.00 | 9.70 | 0.00 | 94 | 1017.4 |
| 20260502115056 | 11 | 20 | 1.6 | 6.4 | 0.00 | 9.70 | 0.00 | 93 | 1017.2 |
| 20260502114602 | 11 | 0 | 0.0 | 4.8 | 0.00 | 9.70 | 0.00 | 93 | 1017.2 |
| 20260502114056 | 11 | 0 | 0.0 | 3.2 | 0.00 | 9.70 | 0.00 | 93 | 1017.2 |
| 20260502113555 | 11 | 0 | 0.0 | 3.2 | 0.00 | 9.70 | 0.00 | 93 | 1017.2 |
| 20260502113057 | 11 | 337 | 0.0 | 3.2 | 0.00 | 9.70 | 0.00 | 93 | 1017.2 |
| 20260502112604 | 11 | 0 | 0.0 | 4.8 | 0.00 | 9.70 | 0.00 | 93 | 1017.2 |
| 20260502112058 | 11 | 326 | 0.0 | 4.8 | 0.00 | 9.70 | 0.00 | 93 | 1017.0 |
| 20260502111600 | 11 | 23 | 1.6 | 6.4 | 0.00 | 9.70 | 0.00 | 93 | 1016.9 |
| 20260502111055 | 11 | 3 | 1.6 | 6.4 | 0.00 | 9.70 | 0.00 | 93 | 1016.8 |
| 20260502110555 | 11 | 0 | 0.0 | 4.8 | 0.00 | 9.70 | 0.00 | 93 | 1016.6 |
| 20260502110053 | 11 | 4 | 1.6 | 6.4 | 0.00 | 9.70 | 0.00 | 93 | 1016.5 |
| 20260502105555 | 11 | 22 | 1.6 | 6.4 | 0.00 | 9.80 | 0.00 | 93 | 1016.6 |
| 20260502105056 | 11 | 350 | 1.6 | 4.8 | 0.00 | 9.80 | 0.00 | 93 | 1016.5 |
| 20260502104558 | 11 | 284 | 0.0 | 4.8 | 0.00 | 9.80 | 0.00 | 93 | 1016.4 |
| 20260502104056 | 11 | 342 | 0.0 | 6.4 | 0.00 | 9.80 | 0.00 | 93 | 1016.2 |
| 20260502103557 | 11 | 318 | 1.6 | 6.4 | 0.00 | 9.80 | 0.00 | 93 | 1016.2 |
| 20260502103101 | 11 | 296 | 0.0 | 4.8 | 0.00 | 9.80 | 0.00 | 93 | 1016.0 |
| 20260502102556 | 11 | 350 | 0.0 | 3.2 | 0.00 | 9.80 | 0.00 | 93 | 1015.9 |
| 20260502102058 | 11 | 0 | 0.0 | 1.6 | 0.00 | 9.80 | 0.00 | 93 | 1015.8 |
| 20260502101556 | 11 | 0 | 0.0 | 1.6 | 0.00 | 9.80 | 0.00 | 93 | 1015.8 |
| 20260502101055 | 11 | 0 | 0.0 | 1.6 | 0.00 | 9.80 | 0.00 | 93 | 1015.8 |
| 20260502100555 | 11 | 0 | 0.0 | 1.6 | 0.00 | 9.80 | 0.00 | 92 | 1015.8 |
| 20260502100115 | 11 | 0 | 0.0 | 1.6 | 0.00 | 9.80 | 0.00 | 92 | 1015.7 |
| 20260502091055 | 11 | 358 | 0.0 | 8.0 | 0.00 | 9.80 | 0.00 | 89 | 1015.4 |
| 20260502090555 | 11 | 48 | 1.6 | 8.0 | 0.00 | 9.80 | 0.00 | 89 | 1015.4 |
| 20260502090103 | 11 | 31 | 1.6 | 6.4 | 0.00 | 9.80 | 0.00 | 89 | 1015.4 |
| 20260502071055 | 12 | 45 | 3.2 | 16.1 | 0.00 | 9.86 | 0.00 | 93 | 1014.7 |
| 20260502070555 | 12 | 343 | 1.6 | 16.1 | 0.00 | 9.86 | 0.00 | 93 | 1014.7 |
| 20260502070059 | 12 | 34 | 3.2 | 12.9 | 0.00 | 9.86 | 0.00 | 93 | 1014.6 |
| 20260502065558 | 12 | 18 | 3.2 | 11.3 | 0.00 | 10.01 | 0.00 | 93 | 1014.6 |
| 20260502065054 | 12 | 52 | 1.6 | 11.3 | 0.00 | 10.01 | 0.00 | 93 | 1014.7 |
| 20260502064609 | 12 | 48 | 3.2 | 11.3 | 0.00 | 10.01 | 0.00 | 93 | 1014.7 |
| 20260502064055 | 12 | 74 | 1.6 | 11.3 | 0.00 | 10.01 | 0.00 | 93 | 1014.7 |
| 20260502063557 | 12 | 321 | 3.2 | 17.7 | 0.00 | 10.01 | 0.00 | 92 | 1014.9 |
| 20260502063058 | 12 | 73 | 1.6 | 17.7 | 0.00 | 10.01 | 0.00 | 93 | 1014.8 |
| 20260502062555 | 12 | 339 | 3.2 | 17.7 | 0.00 | 10.01 | 0.00 | 93 | 1015.1 |
| 20260502062056 | 12 | 35 | 1.6 | 9.7 | 0.00 | 10.01 | 0.00 | 93 | 1015.1 |
| 20260502061559 | 12 | 79 | 0.0 | 9.7 | 0.00 | 10.01 | 0.00 | 93 | 1015.2 |
| 20260502061055 | 12 | 350 | 3.2 | 9.7 | 0.00 | 10.01 | 0.00 | 93 | 1015.3 |
| 20260502060555 | 12 | 28 | 1.6 | 8.0 | 0.00 | 10.01 | 0.00 | 93 | 1015.4 |
| 20260502060059 | 12 | 15 | 3.2 | 8.0 | 0.00 | 10.01 | 0.00 | 93 | 1015.4 |
| 20260502055558 | 12 | 4 | 0.0 | 6.4 | 0.00 | 10.01 | 0.00 | 93 | 1015.7 |
| 20260502055055 | 12 | 0 | 1.6 | 8.0 | 0.00 | 10.01 | 0.00 | 93 | 1015.7 |
| 20260502054600 | 12 | 107 | 0.0 | 8.0 | 0.00 | 10.01 | 0.00 | 93 | 1015.8 |
| 20260502054055 | 12 | 26 | 1.6 | 8.0 | 0.00 | 10.01 | 0.00 | 93 | 1015.8 |
| 20260502053555 | 12 | 279 | 1.6 | 9.7 | 0.00 | 10.01 | 0.00 | 93 | 1015.7 |
| 20260502053058 | 12 | 26 | 1.6 | 11.3 | 0.00 | 10.01 | 0.00 | 93 | 1015.7 |
| 20260502052555 | 12 | 358 | 1.6 | 11.3 | 0.00 | 10.01 | 0.00 | 93 | 1015.8 |
| 20260502052056 | 12 | 356 | 3.2 | 11.3 | 0.00 | 10.01 | 0.00 | 93 | 1015.9 |
| 20260502051639 | 12 | 51 | 0.0 | 3.2 | 0.00 | 10.01 | 0.00 | 94 | 1016.0 |
| 20260502051054 | 12 | 0 | 0.0 | 3.2 | 0.00 | 10.01 | 0.00 | 94 | 1015.9 |
| 20260502050555 | 12 | 353 | 0.0 | 6.4 | 0.03 | 10.01 | 0.00 | 94 | 1015.9 |
| 20260502050054 | 12 | 327 | 0.0 | 6.4 | 0.03 | 10.01 | 0.00 | 94 | 1015.8 |
| 20260502045556 | 12 | 315 | 3.2 | 6.4 | 0.03 | 10.01 | 10.01 | 94 | 1015.7 |
| 20260502045056 | 12 | 34 | 1.6 | 8.0 | 0.03 | 10.01 | 10.01 | 94 | 1015.6 |
| 20260502044605 | 12 | 83 | 1.6 | 8.0 | 0.03 | 10.01 | 10.01 | 94 | 1015.3 |
| 20260502044055 | 12 | 88 | 1.6 | 9.7 | 0.05 | 10.01 | 10.01 | 94 | 1015.0 |
| 20260502043555 | 12 | 41 | 3.2 | 9.7 | 0.05 | 10.01 | 10.01 | 94 | 1014.7 |
| 20260502043103 | 12 | 305 | 0.0 | 11.3 | 0.05 | 10.01 | 10.01 | 94 | 1014.5 |
| 20260502042557 | 12 | 124 | 3.2 | 11.3 | 0.05 | 10.01 | 10.01 | 94 | 1014.1 |
| 20260502042055 | 12 | 86 | 0.0 | 9.7 | 0.05 | 10.01 | 10.01 | 94 | 1014.3 |
| 20260502041553 | 12 | 81 | 1.6 | 9.7 | 0.05 | 10.01 | 10.01 | 94 | 1014.1 |
| 20260502041059 | 12 | 355 | 3.2 | 9.7 | 0.05 | 10.01 | 10.01 | 94 | 1014.0 |
| 20260502040555 | 12 | 349 | 3.2 | 11.3 | 0.03 | 9.98 | 9.98 | 93 | 1014.3 |
| 20260502040052 | 13 | 319 | 3.2 | 11.3 | 0.03 | 9.98 | 9.98 | 94 | 1014.4 |
| 20260502035557 | 13 | 95 | 3.2 | 9.7 | 0.03 | 9.98 | 9.98 | 94 | 1014.3 |
| 20260502035057 | 13 | 46 | 3.2 | 9.7 | 0.03 | 9.98 | 9.98 | 94 | 1014.4 |
| 20260502034554 | 13 | 325 | 1.6 | 9.7 | 0.03 | 9.98 | 9.98 | 94 | 1014.4 |
| 20260502034056 | 13 | 72 | 3.2 | 9.7 | 0.00 | 9.96 | 9.96 | 94 | 1014.4 |
| 20260502033555 | 13 | 86 | 3.2 | 9.7 | 0.03 | 9.96 | 9.96 | 94 | 1014.3 |
| 20260502033057 | 13 | 35 | 3.2 | 9.7 | 0.05 | 9.96 | 9.96 | 94 | 1014.3 |
| 20260502032555 | 13 | 332 | 1.6 | 11.3 | 0.08 | 9.96 | 9.96 | 94 | 1014.1 |
| 20260502032055 | 13 | 124 | 1.6 | 11.3 | 0.15 | 9.96 | 9.96 | 94 | 1014.1 |
| 20260502031609 | 13 | 213 | 3.2 | 12.9 | 0.25 | 9.96 | 9.96 | 94 | 1014.0 |
| 20260502031056 | 13 | 12 | 4.8 | 12.9 | 0.25 | 9.96 | 9.96 | 94 | 1014.0 |
| 20260502030558 | 13 | 64 | 3.2 | 9.7 | 0.28 | 9.96 | 9.96 | 94 | 1013.9 |
| 20260502030053 | 13 | 40 | 3.2 | 9.7 | 0.30 | 9.96 | 9.96 | 94 | 1013.8 |
| 20260502025555 | 13 | 339 | 3.2 | 11.3 | 0.33 | 9.96 | 9.96 | 94 | 1013.7 |
| 20260502025055 | 13 | 14 | 1.6 | 11.3 | 0.36 | 9.96 | 9.96 | 94 | 1013.5 |
| 20260502024557 | 13 | 143 | 4.8 | 11.3 | 0.38 | 9.96 | 9.96 | 94 | 1013.5 |
| 20260502024055 | 13 | 22 | 1.6 | 9.7 | 0.43 | 9.96 | 9.96 | 95 | 1013.6 |
| 20260502023557 | 13 | 347 | 1.6 | 9.7 | 0.43 | 9.93 | 9.93 | 95 | 1013.5 |
| 20260502023055 | 13 | 339 | 1.6 | 6.4 | 0.41 | 9.91 | 9.91 | 95 | 1013.4 |
| 20260502022554 | 13 | 3 | 1.6 | 6.4 | 0.41 | 9.88 | 9.88 | 95 | 1013.5 |
| 20260502022058 | 13 | 36 | 1.6 | 6.4 | 0.33 | 9.80 | 9.80 | 95 | 1013.6 |
| 20260502021557 | 13 | 45 | 1.6 | 4.8 | 0.23 | 9.70 | 9.70 | 95 | 1013.7 |
| 20260502021056 | 13 | 0 | 0.0 | 4.8 | 0.25 | 9.70 | 9.70 | 94 | 1013.3 |
| 20260502020555 | 13 | 129 | 0.0 | 4.8 | 0.25 | 9.68 | 9.68 | 95 | 1012.9 |
| 20260502020108 | 13 | 139 | 1.6 | 6.4 | 0.25 | 9.65 | 9.65 | 94 | 1012.3 |
| 20260502015557 | 13 | 58 | 1.6 | 6.4 | 0.25 | 9.63 | 9.63 | 94 | 1011.9 |
| 20260502015057 | 13 | 87 | 1.6 | 6.4 | 0.25 | 9.60 | 9.60 | 94 | 1011.9 |
| 20260502014555 | 13 | 32 | 1.6 | 8.0 | 0.23 | 9.58 | 9.58 | 94 | 1012.0 |
| 20260502014054 | 13 | 111 | 1.6 | 8.0 | 0.18 | 9.53 | 9.53 | 94 | 1012.0 |
| 20260502013554 | 14 | 13 | 1.6 | 11.3 | 0.15 | 9.50 | 9.50 | 94 | 1011.8 |
| 20260502013055 | 13 | 88 | 3.2 | 11.3 | 0.15 | 9.50 | 9.50 | 94 | 1011.2 |
| 20260502012554 | 14 | 77 | 3.2 | 11.3 | 0.13 | 9.47 | 9.47 | 94 | 1010.9 |
| 20260502012054 | 14 | 42 | 1.6 | 9.7 | 0.13 | 9.47 | 9.47 | 94 | 1010.8 |
| 20260502011555 | 14 | 359 | 3.2 | 11.3 | 0.13 | 9.47 | 9.47 | 94 | 1011.2 |
| 20260502011053 | 14 | 28 | 1.6 | 11.3 | 0.10 | 9.45 | 9.45 | 94 | 1011.2 |
| 20260502010556 | 14 | 62 | 3.2 | 12.9 | 0.08 | 9.42 | 9.42 | 94 | 1011.2 |
| 20260502010059 | 14 | 285 | 4.8 | 12.9 | 0.05 | 9.40 | 9.40 | 94 | 1011.2 |
| 20260502005557 | 14 | 355 | 3.2 | 9.7 | 0.03 | 9.37 | 9.37 | 94 | 1011.3 |
| 20260502005054 | 15 | 2 | 1.6 | 9.7 | 0.00 | 9.35 | 9.35 | 94 | 1011.3 |
| 20260502004557 | 15 | 21 | 3.2 | 9.7 | 0.03 | 9.35 | 9.35 | 94 | 1011.4 |
| 20260502004054 | 15 | 311 | 3.2 | 9.7 | 0.03 | 9.35 | 9.35 | 95 | 1011.5 |
| 20260502003556 | 15 | 88 | 0.0 | 11.3 | 0.05 | 9.35 | 9.35 | 95 | 1011.4 |
| 20260502003054 | 15 | 0 | 3.2 | 16.1 | 0.08 | 9.35 | 9.35 | 94 | 1011.0 |
| 20260502002554 | 15 | 32 | 4.8 | 16.1 | 0.20 | 9.35 | 9.35 | 94 | 1010.6 |
| 20260502002054 | 15 | 42 | 6.4 | 16.1 | 0.33 | 9.35 | 9.35 | 95 | 1010.4 |
| 20260502001553 | 15 | 101 | 4.8 | 14.5 | 0.38 | 9.35 | 9.35 | 95 | 1010.0 |
| 20260502001055 | 15 | 26 | 1.6 | 9.7 | 0.38 | 9.35 | 9.35 | 95 | 1009.8 |
| 20260502000554 | 15 | 357 | 1.6 | 9.7 | 0.41 | 9.35 | 9.35 | 95 | 1009.7 |
| 20260502000058 | 15 | 349 | 3.2 | 11.3 | 0.41 | 9.35 | 9.35 | 95 | 1009.7 |
| 20260501235554 | 15 | 90 | 4.8 | 11.3 | 0.41 | 9.35 | 9.35 | 95 | 1009.4 |
| 20260501235056 | 15 | 24 | 4.8 | 12.9 | 0.41 | 9.35 | 9.35 | 95 | 1009.4 |
| 20260501234557 | 15 | 339 | 3.2 | 12.9 | 0.41 | 9.32 | 9.32 | 95 | 1009.6 |
| 20260501234054 | 15 | 96 | 3.2 | 11.3 | 0.48 | 9.32 | 9.32 | 95 | 1009.9 |
| 20260501233557 | 15 | 31 | 1.6 | 11.3 | 0.51 | 9.30 | 9.30 | 95 | 1010.2 |
| 20260501233103 | 15 | 342 | 1.6 | 9.7 | 0.53 | 9.27 | 9.27 | 95 | 1010.4 |
| 20260501232553 | 15 | 52 | 1.6 | 11.3 | 0.46 | 9.12 | 9.12 | 95 | 1010.7 |
| 20260501232056 | 15 | 360 | 4.8 | 14.5 | 0.46 | 9.02 | 9.02 | 95 | 1010.6 |
| 20260501231603 | 15 | 358 | 1.6 | 14.5 | 0.48 | 8.97 | 8.97 | 95 | 1011.1 |
| 20260501231055 | 15 | 146 | 1.6 | 14.5 | 0.56 | 8.97 | 8.97 | 95 | 1010.9 |
| 20260501230555 | 15 | 82 | 1.6 | 8.0 | 0.61 | 8.94 | 8.94 | 95 | 1010.8 |
| 20260501230054 | 15 | 35 | 1.6 | 6.4 | 0.71 | 8.94 | 8.94 | 95 | 1010.3 |
| 20260501225555 | 15 | 52 | 1.6 | 6.4 | 0.81 | 8.94 | 8.94 | 95 | 1010.5 |
| 20260501225055 | 15 | 350 | 1.6 | 14.5 | 0.86 | 8.94 | 8.94 | 95 | 1010.6 |
| 20260501224552 | 15 | 69 | 1.6 | 17.7 | 0.89 | 8.92 | 8.92 | 95 | 1010.6 |
| 20260501224055 | 15 | 104 | 6.4 | 17.7 | 0.86 | 8.84 | 8.84 | 95 | 1009.6 |
| 20260501223555 | 15 | 24 | 4.8 | 12.9 | 0.84 | 8.79 | 8.79 | 95 | 1008.8 |
| 20260501223055 | 15 | 54 | 3.2 | 9.7 | 0.81 | 8.74 | 8.74 | 95 | 1010.4 |
| 20260501222556 | 15 | 81 | 3.2 | 9.7 | 0.76 | 8.64 | 8.64 | 95 | 1011.3 |
| 20260501222057 | 15 | 50 | 1.6 | 6.4 | 0.71 | 8.56 | 8.56 | 95 | 1011.6 |
| 20260501221555 | 15 | 61 | 1.6 | 6.4 | 0.66 | 8.48 | 8.48 | 95 | 1011.3 |
| 20260501221054 | 15 | 20 | 1.6 | 6.4 | 0.74 | 8.41 | 8.41 | 95 | 1011.3 |
| 20260501220555 | 15 | 62 | 1.6 | 3.2 | 0.86 | 8.33 | 8.33 | 95 | 1011.9 |
| 20260501220055 | 15 | 1 | 0.0 | 4.8 | 0.86 | 8.23 | 8.23 | 95 | 1012.2 |
| 20260501215558 | 15 | 72 | 0.0 | 9.7 | 0.94 | 8.38 | 8.13 | 95 | 1011.8 |
| 20260501215055 | 15 | 80 | 0.0 | 9.7 | 0.91 | 8.33 | 8.08 | 95 | 1011.3 |
| 20260501214602 | 15 | 68 | 3.2 | 9.7 | 0.89 | 8.28 | 8.03 | 95 | 1010.8 |
| 20260501214056 | 15 | 75 | 3.2 | 8.0 | 0.86 | 8.23 | 7.98 | 95 | 1010.5 |
| 20260501213555 | 15 | 4 | 1.6 | 8.0 | 0.91 | 8.20 | 7.95 | 95 | 1010.2 |
| 20260501213102 | 15 | 98 | 3.2 | 9.7 | 0.97 | 8.18 | 7.92 | 95 | 1010.1 |
| 20260501212555 | 15 | 62 | 1.6 | 11.3 | 1.24 | 8.13 | 7.87 | 95 | 1010.8 |
| 20260501212100 | 15 | 95 | 1.6 | 11.3 | 1.32 | 8.10 | 7.85 | 95 | 1010.7 |
| 20260501211558 | 15 | 82 | 4.8 | 11.3 | 1.40 | 8.08 | 7.82 | 95 | 1010.4 |
| 20260501211055 | 15 | 108 | 3.2 | 11.3 | 1.47 | 7.92 | 7.67 | 95 | 1010.4 |
| 20260501210555 | 15 | 67 | 3.2 | 8.0 | 1.65 | 7.72 | 7.47 | 95 | 1009.6 |
| 20260501210055 | 15 | 57 | 1.6 | 8.0 | 1.73 | 7.59 | 7.34 | 95 | 1010.7 |
| 20260501205556 | 15 | 73 | 1.6 | 6.4 | 1.68 | 7.44 | 7.19 | 95 | 1010.2 |
| 20260501205055 | 15 | 100 | 1.6 | 6.4 | 1.65 | 7.42 | 7.16 | 95 | 1009.9 |
| 20260501204600 | 15 | 93 | 1.6 | 9.7 | 1.68 | 7.39 | 7.14 | 95 | 1009.2 |
| 20260501204054 | 15 | 121 | 1.6 | 9.7 | 1.68 | 7.37 | 7.11 | 95 | 1009.0 |
| 20260501203555 | 15 | 68 | 6.4 | 9.7 | 1.68 | 7.29 | 7.04 | 95 | 1007.9 |
| 20260501203059 | 16 | 95 | 1.6 | 8.0 | 1.63 | 7.21 | 6.96 | 95 | 1009.6 |
| 20260501202555 | 16 | 46 | 3.2 | 8.0 | 1.32 | 6.88 | 6.63 | 95 | 1009.8 |
| 20260501202055 | 16 | 75 | 1.6 | 8.0 | 1.30 | 6.78 | 6.53 | 95 | 1011.2 |
| 20260501201554 | 16 | 334 | 1.6 | 8.0 | 1.24 | 6.68 | 6.43 | 95 | 1011.2 |
| 20260501201059 | 16 | 353 | 1.6 | 8.0 | 0.99 | 6.40 | 6.15 | 95 | 1010.4 |
| 20260501200559 | 16 | 66 | 1.6 | 8.0 | 0.69 | 6.07 | 5.82 | 95 | 1010.2 |
| 20260501200100 | 16 | 289 | 0.0 | 8.0 | 0.48 | 5.87 | 5.61 | 95 | 1010.4 |
| 20260501195555 | 16 | 18 | 3.2 | 11.3 | 0.38 | 5.77 | 5.51 | 95 | 1009.1 |
| 20260501195058 | 16 | 90 | 3.2 | 11.3 | 0.38 | 5.77 | 5.51 | 94 | 1008.7 |
| 20260501194601 | 16 | 55 | 6.4 | 11.3 | 0.33 | 5.71 | 5.46 | 94 | 1008.7 |
| 20260501194055 | 16 | 86 | 4.8 | 12.9 | 0.30 | 5.69 | 5.44 | 95 | 1008.6 |
| 20260501193558 | 16 | 64 | 4.8 | 12.9 | 0.25 | 5.61 | 5.33 | 95 | 1008.7 |
| 20260501193055 | 16 | 86 | 3.2 | 11.3 | 0.23 | 5.59 | 5.31 | 95 | 1009.6 |
| 20260501192555 | 16 | 81 | 3.2 | 11.3 | 0.20 | 5.54 | 5.28 | 94 | 1009.7 |
| 20260501192056 | 16 | 71 | 4.8 | 9.7 | 0.23 | 5.49 | 5.23 | 94 | 1009.6 |
| 20260501191606 | 16 | 68 | 3.2 | 8.0 | 0.71 | 5.44 | 5.18 | 95 | 1009.7 |